Simultaneous Nadir Overpasses (SNOs) Predictions

Prediction of SNOs between AQUA and NPP Satellite Orbit:

Table of predicted SNOs for the next 14.0 days since TLE Epoch: 12/14/2019
Index Date (AQUA) Time (AQUA) Lat,Lon (AQUA) SZA (AQUA ) Date (NPP) Time (NPP) Lat,Lon (NPP) SZA (NPP ) Distance(km) Time Diff (sec)
1 12/16/2019 14:04:58 76.03,-152.15 119.66 12/16/2019 14:04:28 76.03,-152.08 119.66 2.12 30
2 12/16/2019 14:54:08 -76.84, 18.19 61.23 12/16/2019 14:54:56 -76.84, 18.19 61.28 0.06 48
3 12/19/2019 06:21:26 76.10, -36.03 119.73 12/19/2019 06:21:20 76.10, -36.08 119.75 1.44 6
4 12/19/2019 07:10:29 -77.24, 135.58 61.53 12/19/2019 07:11:40 -77.25, 135.68 61.62 2.73 71
5 12/21/2019 21:48:45 -75.34, -90.05 59.35 12/21/2019 21:47:46 -75.33, -90.08 59.29 0.74 59
6 12/21/2019 22:37:45 76.61, 81.51 119.28 12/21/2019 22:38:02 76.61, 81.56 119.25 1.39 17
7 12/24/2019 14:05:00 -76.00, 27.76 60.01 12/24/2019 14:04:24 -76.00, 27.84 59.99 2.21 36
8 12/24/2019 14:54:11 76.72,-162.22 119.21 12/24/2019 14:54:52 76.72,-162.26 119.18 1.23 41
9 12/27/2019 06:21:26 -76.16, 144.15 60.19 12/27/2019 06:21:14 -76.16, 144.14 60.17 0.27 12




NCC Satellite Simultaneous Nadir Overpasses (SNOs) Prediction Service
